Aeroporto :
LOGIN :

Iscrizione | Disclaimer

   EN    FR    IT 

 










Sommario :    VFR   VFR Marginale   IFR   IFR Intensivo   IFR Molto Intensivo
Visibilità : 
Base nubi : 
>= 8 km
>= 3000ft
5 / 8 km
1000 / 3000 ft
1500m / 5 km
500 / 1000 ft
800 / 1500m
200 / 500 ft
< 800m
< 200 ft
Simboli :   Temporali  Nebbia  Neve Forte  Precipitazioni Forti  Vento > 20 kt
SIGMETs :   Varie  Temporali  Ghiacco  Turbolenza  Onda orograficha  Ceneri Vulcaniche






- Altitudine del aeroporto : 256 ft
- Codice IATA : GOJ


UWGG - Nizhny Novgorod International

ULTIMO METAR :
  • 191500Z 32002MPS 6000 NSC M19/M22 Q1015 R36R/090050 NOSIG

METARs OBSOLETI :
  • 191430Z 31002MPS 6000 NSC M19/M22 Q1015 R36R/090050 NOSIG
  • 191400Z 29002MPS 260V340 6000 NSC M19/M22 Q1015 R36R/090050 NOSIG
  • 191330Z 31001MPS 7000 NSC M19/M22 Q1015 R36R/090050 NOSIG
  • 191300Z VRB01MPS 9000 NSC M19/M22 Q1015 R36R/090050 NOSIG
  • 191230Z 01001MPS 9000 NSC M19/M22 Q1015 R36R/090050 NOSIG

TAF TAF UWGG
Valido dal 19 a 15 ore il 20 a 15 ore UTC


191350Z 1915/2015 VRB01MPS 8000 SCT013 TXM12/2015Z TNM22/2003Z



MetMap, La meteo Aeronautica in un colpo d'occhio ! - Copyright ORBIFLY Dicembre 2007 - Disclaimer

ORBIFLY MET'MAP TEAM :

Programmazione e sviluppo : Alexandra Zaïnal
Concezione : Baudouin d'Aumeries
Aiuto per la programmazione : Marc-Olivier Méhu
Supporto tecnico e logistico : Manuel Goepfert
Aiuto per la traduzione : Arnaldo La Scala

Contatto : metmap@orbifly.com




FONTI E CREDITI :

   NOAA